Location: Belfast
(54.5830°N, 5.9330°W)
Time: 05:46:04
(UTC+01:00)

ISS - Pass Details

Date: 18 March 2018
Orbit: 403 x 408 km, 51.6° (Epoch: 21 September)

Event Time Altitude Azimuth Distance (km) Brightness Sun altitude
Exits shadow 04:08:48 12° 149° (SSE) 1,392 -1.1 -20.7°
Drops below altitude 10° 04:09:05 10° 146° (SE) 1,487 -0.9 -20.6°
Sets 04:11:21 0° 133° (SE) 2,343 0.3 -20.3°
